Total_Precipitation_Accumulation
2.33 2.54 2.92 3.17 3.37 3.53 3.78 4.07 4.49 4.91 5.07 4.93 4.89 4.94 4.93 4.83 4.52 4.40 4.57 4.62 4.36 4.40 4.94 4.83 5.37 5.28 5.44 5.59 5.47 5.68 5.51 5.26 5.34 5.33 4.71 3.99 3.50 3.35 3.12 3.09 3.32 3.26 3.28
2.29 2.57 2.95 3.12 3.09 3.28 3.57 3.97 4.48 4.85 4.79 4.97 5.23 5.26 5.21 4.73 4.54 4.51 4.60 4.41 4.14 4.09 4.27 4.97 5.01 5.10 5.33 5.36 5.32 5.38 5.08 4.76 5.17 5.52 5.38 4.56 4.09 3.56 2.88 3.08 3.14 3.27 3.55
1.97 2.16 2.40 2.61 2.82 3.24 3.69 4.07 4.43 4.58 4.66 4.92 5.08 4.84 4.77 4.43 4.47 4.60 4.54 4.29 4.12 4.06 4.29 4.69 4.79 4.91 4.80 5.04 5.27 5.09 5.04 4.96 5.03 5.27 5.62 5.11 4.40 3.77 3.29 3.07 3.10 3.42 3.71
1.83 1.97 2.05 2.39 2.78 3.22 3.84 4.30 4.34 4.43 4.35 4.53 4.71 4.59 4.32 4.20 4.20 4.27 4.07 4.03 3.93 3.82 3.94 4.23 4.51 4.70 4.62 4.83 4.63 4.72 4.94 5.09 4.94 5.07 4.97 4.92 4.64 4.42 3.84 3.33 3.16 3.37 3.45
1.75 1.99 1.97 2.20 2.49 2.92 3.36 3.81 4.19 4.30 4.17 4.19 4.34 4.52 4.34 4.12 3.95 3.86 3.82 3.82 3.84 3.67 3.63 3.86 4.15 4.31 4.27 4.34 4.58 4.98 4.89 4.86 4.77 4.95 5.07 5.22 4.93 4.50 4.23 3.82 3.58 3.36 2.96
1.78 1.91 2.20 2.29 2.45 2.74 3.13 3.43 3.69 3.72 3.73 3.76 3.84 3.98 4.07 4.07 3.90 3.73 3.77 3.73 3.65 3.58 3.53 3.62 3.99 4.08 4.03 4.04 4.28 4.47 4.52 4.56 4.69 4.71 4.66 4.92 4.92 4.69 4.67 4.16 3.77 3.46 2.90
1.95 1.95 2.14 2.28 2.39 2.52 2.72 2.92 3.02 3.10 3.14 3.22 3.26 3.28 3.44 3.53 3.44 3.40 3.50 3.56 3.48 3.42 3.45 3.42 3.60 3.55 3.57 3.76 4.11 4.12 4.01 4.07 4.23 4.21 4.32 4.31 4.18 4.32 4.45 4.32 3.76 3.36 2.80
1.74 1.83 1.94 1.92 1.95 2.02 2.17 2.32 2.41 2.47 2.48 2.60 2.75 2.79 3.03 3.13 3.18 3.35 3.22 3.30 3.26 3.28 3.22 3.09 3.05 3.06 3.19 3.30 3.78 3.82 3.72 3.85 3.85 3.73 4.14 3.96 3.72 3.98 3.99 4.04 4.19 3.82 3.37
1.45 1.47 1.53 1.62 1.76 1.79 1.85 1.94 2.04 2.10 2.11 2.22 2.40 2.45 2.56 2.77 2.96 3.11 2.94 2.75 2.85 2.82 3.02 2.94 2.78 2.75 2.92 3.10 3.30 3.37 3.41 3.59 3.54 3.61 3.74 3.46 3.37 3.51 3.58 3.81 4.15 4.25 3.88
1.29 1.32 1.30 1.37 1.44 1.52 1.65 1.78 1.88 2.13 2.20 2.21 2.31 2.24 2.40 2.55 2.72 2.78 2.56 2.55 2.69 2.74 2.76 2.76 2.66 2.62 2.64 2.74 3.00 3.00 3.15 3.24 3.26 3.41 3.43 3.35 3.21 3.35 3.32 3.41 3.70 3.98 4.02
1.09 1.17 1.10 1.12 1.22 1.32 1.51 1.70 1.97 2.19 2.20 2.07 2.18 2.26 2.29 2.44 2.48 2.46 2.35 2.47 2.60 2.78 2.76 2.75 2.75 2.63 2.54 2.66 2.81 2.64 2.86 2.90 2.94 2.89 2.91 2.96 3.20 3.33 3.24 3.33 3.40 3.69 4.01
0.93 1.01 1.07 1.01 1.06 1.13 1.28 1.52 1.77 1.96 2.01 1.94 1.98 2.16 2.30 2.35 2.33 2.27 2.29 2.33 2.34 2.40 2.42 2.38 2.39 2.41 2.59 2.77 2.70 2.64 2.72 2.78 2.67 2.73 2.90 2.74 2.98 3.16 3.07 3.19 3.22 3.43 3.82
1.02 0.97 1.08 1.12 1.10 1.13 1.25 1.44 1.53 1.76 2.02 2.07 2.09 2.26 2.24 2.14 2.19 2.41 2.50 2.41 2.37 2.37 2.34 2.34 2.31 2.31 2.54 2.71 2.63 2.67 2.76 2.77 2.62 2.74 2.76 2.61 2.79 2.85 2.94 3.01 3.06 3.28 3.55
1.05 0.98 1.03 1.08 1.01 1.09 1.25 1.41 1.52 1.69 1.90 2.15 2.28 2.39 2.26 2.24 2.31 2.46 2.57 2.54 2.45 2.46 2.55 2.58 2.48 2.48 2.37 2.37 2.53 2.69 2.67 2.63 2.53 2.57 2.51 2.40 2.42 2.52 2.79 2.86 2.99 3.24 3.49
0.99 1.02 0.99 0.94 0.92 0.95 1.05 1.28 1.55 1.76 1.91 2.16 2.29 2.37 2.40 2.42 2.47 2.48 2.56 2.57 2.48 2.46 2.70 2.72 2.67 2.63 2.43 2.23 2.38 2.52 2.40 2.41 2.37 2.36 2.21 2.05 2.14 2.31 2.43 2.31 2.71 3.13 3.28
1.01 0.94 0.95 0.98 0.99 0.94 0.96 1.06 1.30 1.59 1.78 1.98 2.12 2.20 2.34 2.50 2.52 2.50 2.55 2.55 2.59 2.65 2.70 2.62 2.59 2.47 2.11 2.20 2.15 2.09 2.13 2.19 2.21 2.25 2.23 2.11 2.02 1.99 2.04 2.02 2.23 2.62 2.80
1.25 1.21 1.11 1.18 1.11 1.08 1.10 1.14 1.23 1.47 1.71 1.89 2.01 2.13 2.27 2.40 2.44 2.39 2.52 2.61 2.57 2.53 2.45 2.41 2.41 2.33 2.24 2.09 1.80 1.73 1.88 2.08 2.17 2.23 2.28 1.99 1.83 1.92 1.80 1.90 1.99 2.04 2.13
1.04 1.20 1.27 1.32 1.31 1.24 1.31 1.32 1.36 1.50 1.69 1.91 2.05 2.14 2.30 2.33 2.36 2.37 2.31 2.33 2.35 2.34 2.32 2.20 2.20 2.29 2.18 2.12 1.84 1.72 1.69 1.89 1.93 1.92 1.97 2.03 2.01 1.92 2.00 1.99 1.94 1.79 1.81
1.03 1.09 1.15 1.25 1.43 1.46 1.48 1.51 1.63 1.77 1.80 1.93 2.10 2.23 2.30 2.29 2.30 2.32 2.25 2.27 2.30 2.25 2.26 2.23 2.25 2.26 2.19 2.16 1.94 1.90 1.82 1.90 1.87 1.89 1.93 2.03 2.08 2.16 2.10 2.06 2.06 1.98 1.90
0.98 1.08 1.18 1.23 1.38 1.52 1.61 1.65 1.76 1.94 1.94 1.99 2.11 2.19 2.25 2.34 2.27 2.37 2.46 2.46 2.38 2.33 2.37 2.37 2.33 2.19 2.14 2.07 1.89 1.92 1.89 2.09 2.16 2.22 2.18 2.08 1.93 1.97 1.92 1.90 1.98 1.94 1.89
1.07 1.03 1.13 1.38 1.49 1.58 1.73 1.81 1.77 1.83 1.88 2.03 2.15 2.22 2.29 2.37 2.34 2.42 2.50 2.54 2.50 2.54 2.45 2.29 2.28 2.27 2.16 1.97 1.70 1.67 1.64 1.89 2.16 2.18 2.08 1.96 1.80 1.64 1.61 1.58 1.66 1.77 1.76
1.36 1.39 1.47 1.57 1.60 1.64 1.82 1.96 2.00 1.95 2.05 2.14 2.14 2.24 2.38 2.20 2.19 2.45 2.56 2.61 2.64 2.59 2.48 2.36 2.25 2.26 2.22 1.94 1.74 1.68 1.63 1.76 2.01 2.22 2.18 2.04 1.86 1.64 1.55 1.38 1.43 1.53 1.53
1.40 1.45 1.51 1.53 1.61 1.72 1.83 2.05 2.12 2.10 2.11 2.21 2.27 2.32 2.36 2.44 2.49 2.54 2.62 2.60 2.54 2.49 2.46 2.43 2.32 2.30 2.33 2.24 1.94 1.78 1.77 1.86 1.90 2.03 2.22 2.10 1.78 1.54 1.44 1.40 1.32 1.25 1.27
1.25 1.32 1.47 1.53 1.69 1.89 2.03 2.25 2.27 2.22 2.25 2.36 2.48 2.49 2.44 2.49 2.65 2.79 2.76 2.66 2.51 2.57 2.60 2.46 2.40 2.40 2.42 2.27 2.06 1.90 1.80 1.83 1.81 1.83 1.85 1.82 1.68 1.49 1.45 1.49 1.37 1.25 1.33
1.38 1.50 1.68 1.80 1.90 2.00 2.07 2.25 2.40 2.48 2.57 2.62 2.64 2.67 2.67 2.72 2.81 2.77 2.71 2.69 2.63 2.57 2.60 2.54 2.50 2.46 2.36 2.22 2.12 1.98 1.91 1.89 1.85 1.79 1.79 1.74 1.74 1.60 1.53 1.62 1.65 1.64 1.68
1.73 1.72 1.74 1.92 2.02 2.03 2.12 2.28 2.51 2.76 2.98 2.93 2.79 2.82 2.88 2.91 2.85 2.85 2.67 2.52 2.41 2.33 2.21 2.22 2.21 2.08 2.04 1.98 1.89 1.87 1.89 1.87 1.90 1.78 1.80 1.91 1.90 1.86 1.86 1.89 1.88 1.87 1.82